Date String (YYYY-MM-DD hh:mm:ss) UTC,Instrument flags,absolute air pressure of the measurement (hPa),sample flow rate (lpm),inlet stack bypass flow (lpm),air temperature of the measurement (°C),ambient temperature measured by the external sensor (°C),aerosol sample conditioner tube jacket temperature (°C),OPC LED temperature (°C),internal box temperature (°C),relative humidity of the measurement (%),span deviation,mass concentration of particles derived from Lorenz-Mie calculation of OPC scattering (μg/m³),mass concentration of particles derived from Lorenz-Mie calculation of OPC scattering (μg/m³),mass concentration of particles derived from Lorenz-Mie calculation of OPC scattering (μg/m³)
DateTimeUTC,F1_M11,P_M11,Q1_M11,Q2_M11,T1_M11,T2_M11,T3_M11,T4_M11,T5_M11,U1_M11,ZSPAN_M11,X2_M11,X0_M11,X1_M11
2023-10-25 07:00:00,SystemResetWarning,0827.7,5.00,000.00,029.0,027.4,000.0,037.5,030.6,18.2,0000.0,0005.45,0012.76,0004.10
2023-10-25 07:01:00,SystemResetWarning,0827.7,5.00,000.00,029.0,027.4,000.0,037.5,030.5,18.2,0000.0,0005.49,0012.83,0004.10
2023-10-25 07:02:00,SystemResetWarning,0827.7,5.00,000.00,029.0,027.4,000.0,037.5,030.5,18.1,0000.0,0005.54,0012.86,0004.09
2023-10-25 07:03:00,SystemResetWarning,0827.7,5.00,000.00,028.9,027.4,000.0,037.5,030.5,18.1,0000.0,0005.56,0012.62,0004.08
2023-10-25 07:04:00,SystemResetWarning,0827.7,5.00,000.00,028.9,027.4,000.0,037.5,030.5,18.1,0000.0,0005.62,0012.73,0004.07
2023-10-25 07:05:00,SystemResetWarning,0827.7,5.00,000.00,028.9,027.4,000.0,037.5,030.5,18.1,0000.0,0005.67,0013.22,0004.08
2023-10-25 07:06:00,SystemResetWarning,0827.7,5.00,000.00,028.9,027.4,000.0,037.4,030.5,18.2,0000.0,0005.72,0013.57,0004.08
2023-10-25 07:07:00,SystemResetWarning,0827.8,5.00,000.00,028.9,027.4,000.0,037.4,030.5,18.3,0000.0,0005.77,0013.74,0004.07
2023-10-25 07:08:00,SystemResetWarning,0827.8,5.00,000.00,028.9,027.4,000.0,037.4,030.5,18.3,0000.0,0005.77,0014.04,0004.07
2023-10-25 07:09:00,SystemResetWarning,0827.8,5.00,000.00,028.9,027.4,000.0,037.4,030.5,18.5,0000.0,0005.76,0014.27,0004.08
2023-10-25 07:10:00,SystemResetWarning,0827.8,5.00,000.00,028.9,027.4,000.0,037.4,030.5,18.5,0000.0,0005.73,0014.37,0004.10
2023-10-25 07:11:00,SystemResetWarning,0827.9,5.00,000.00,028.9,027.4,000.0,037.4,030.5,18.5,0000.0,0005.73,0014.54,0004.10
2023-10-25 07:12:00,SystemResetWarning,0827.7,5.00,000.00,028.9,027.4,000.0,037.4,030.5,18.5,0000.0,0005.78,0015.05,0004.11
2023-10-25 07:13:00,SystemResetWarning,0827.8,5.00,000.00,028.9,027.4,000.0,037.4,030.6,18.5,0000.0,0005.75,0015.56,0004.11
2023-10-25 07:14:00,SystemResetWarning,0827.8,5.00,000.00,028.9,027.4,000.0,037.4,030.5,18.7,0000.0,0005.73,0015.38,0004.13
2023-10-25 07:15:00,SystemResetWarning,0827.7,5.00,000.00,028.9,027.4,000.0,037.4,030.5,18.7,0000.0,0005.71,0015.39,0004.14
2023-10-25 07:16:00,SystemResetWarning,0827.8,5.00,000.00,028.9,027.4,000.0,037.4,030.5,18.6,0000.0,0005.68,0015.07,0004.15
2023-10-25 07:17:00,SystemResetWarning,0827.8,5.00,000.00,028.9,027.4,000.0,037.4,030.5,18.8,0000.0,0005.66,0014.39,0004.15
2023-10-25 07:18:00,SystemResetWarning,0827.8,5.00,000.00,028.9,027.4,000.0,037.4,030.5,18.9,0000.0,0005.64,0014.55,0004.17
2023-10-25 07:19:00,SystemResetWarning,0827.8,5.00,000.00,028.9,027.4,000.0,037.4,030.5,18.9,0000.0,0005.63,0014.45,0004.19
2023-10-25 07:20:00,SystemResetWarning,0827.7,5.00,000.00,028.9,027.4,000.0,037.4,030.5,18.8,0000.0,0005.68,0014.48,0004.20
2023-10-25 07:21:00,SystemResetWarning,0827.7,5.00,000.00,028.9,027.4,000.0,037.4,030.5,18.7,0000.0,0005.71,0015.33,0004.20
2023-10-25 07:22:00,SystemResetWarning,0827.7,4.99,000.00,028.9,027.4,000.0,037.4,030.5,18.8,0000.0,0005.80,0015.35,0004.21
2023-10-25 07:23:00,SystemResetWarning,0827.7,5.00,000.00,028.9,027.4,000.0,037.4,030.5,19.0,0000.0,0005.78,0015.00,0004.22
2023-10-25 07:24:00,SystemResetWarning,0827.7,5.00,000.00,028.9,027.4,000.0,037.4,030.5,18.8,0000.0,0005.73,0014.54,0004.22
2023-10-25 07:25:00,SystemResetWarning,0827.7,4.99,000.00,028.9,027.4,000.0,037.4,030.5,18.6,0000.0,0005.75,0015.18,0004.23
2023-10-25 07:26:00,SystemResetWarning,0827.7,5.00,000.00,028.9,027.4,000.0,037.4,030.5,18.5,0000.0,0005.79,0015.34,0004.22
2023-10-25 07:27:00,SystemResetWarning,0827.8,5.00,000.00,028.9,027.4,000.0,037.4,030.5,18.4,0000.0,0005.84,0015.55,0004.22
2023-10-25 07:28:00,SystemResetWarning,0827.7,5.01,000.00,028.9,027.3,000.0,037.4,030.5,18.3,0000.0,0005.83,0015.64,0004.24
2023-10-25 07:29:00,SystemResetWarning,0827.7,5.01,000.00,028.9,027.3,000.0,037.4,030.5,18.3,0000.0,0005.87,0015.50,0004.25
2023-10-25 07:30:00,SystemResetWarning,0827.7,5.00,000.00,028.9,027.3,000.0,037.4,030.5,18.2,0000.0,0005.90,0015.77,0004.25
2023-10-25 07:31:00,SystemResetWarning,0827.7,5.00,000.00,028.9,027.3,000.0,037.4,030.5,18.2,0000.0,0005.90,0015.86,0004.25
2023-10-25 07:32:00,SystemResetWarning,0827.7,5.01,000.00,028.9,027.3,000.0,037.4,030.5,18.3,0000.0,0005.92,0015.24,0004.25
2023-10-25 07:33:00,SystemResetWarning,0827.7,5.01,000.00,028.9,027.3,000.0,037.4,030.5,18.3,0000.0,0005.90,0015.21,0004.25
2023-10-25 07:34:00,SystemResetWarning,0827.7,4.99,000.00,028.9,027.3,000.0,037.4,030.5,18.3,0000.0,0005.92,0015.19,0004.26
2023-10-25 07:35:00,SystemResetWarning,0827.7,5.00,000.00,028.9,027.3,000.0,037.4,030.5,18.3,0000.0,0005.95,0014.74,0004.28
2023-10-25 07:36:00,SystemResetWarning,0827.7,5.00,000.00,028.9,027.3,000.0,037.4,030.5,18.3,0000.0,0006.01,0014.41,0004.29
2023-10-25 07:37:00,SystemResetWarning,0827.7,5.00,000.00,028.9,027.3,000.0,037.4,030.5,18.2,0000.0,0005.99,0014.52,0004.29
2023-10-25 07:38:00,SystemResetWarning,0827.6,5.00,000.00,028.9,027.3,000.0,037.4,030.5,18.3,0000.0,0005.92,0014.46,0004.28
2023-10-25 07:39:00,SystemResetWarning,0827.6,5.00,000.00,028.9,027.3,000.0,037.4,030.4,18.4,0000.0,0005.91,0014.60,0004.26
2023-10-25 07:40:00,SystemResetWarning,0827.5,5.01,000.00,028.9,027.3,000.0,037.4,030.5,18.4,0000.0,0005.87,0015.47,0004.24
2023-10-25 07:41:00,SystemResetWarning,0827.5,5.01,000.00,028.9,027.3,000.0,037.4,030.5,18.4,0000.0,0005.84,0015.38,0004.23
2023-10-25 07:42:00,SystemResetWarning,0827.5,5.01,000.00,028.9,027.3,000.0,037.4,030.5,18.4,0000.0,0005.85,0015.18,0004.23
2023-10-25 07:43:00,SystemResetWarning,0827.5,5.01,000.00,028.9,027.3,000.0,037.3,030.5,18.4,0000.0,0005.87,0016.19,0004.24
2023-10-25 07:44:00,SystemResetWarning,0827.5,5.00,000.00,028.8,027.3,000.0,037.3,030.4,18.4,0000.0,0005.82,0016.13,0004.22
2023-10-25 07:45:00,SystemResetWarning,0827.5,5.00,000.00,028.8,027.3,000.0,037.3,030.4,18.3,0000.0,0005.84,0016.18,0004.22
2023-10-25 07:46:00,SystemResetWarning,0827.5,4.99,000.00,028.8,027.3,000.0,037.3,030.4,18.3,0000.0,0005.81,0016.13,0004.20
2023-10-25 07:47:00,SystemResetWarning,0827.6,5.00,000.00,028.8,027.3,000.0,037.3,030.4,18.2,0000.0,0005.80,0016.25,0004.19
2023-10-25 07:48:00,SystemResetWarning,0827.6,5.00,000.00,028.8,027.3,000.0,037.3,030.4,18.1,0000.0,0005.81,0016.24,0004.20
2023-10-25 07:49:00,SystemResetWarning,0827.7,5.00,000.00,028.8,027.3,000.0,037.3,030.4,18.1,0000.0,0005.85,0016.47,0004.21
2023-10-25 07:50:00,SystemResetWarning,0827.7,5.00,000.00,028.8,027.3,000.0,037.3,030.4,18.1,0000.0,0005.86,0016.47,0004.23
2023-10-25 07:51:00,SystemResetWarning,0827.7,5.00,000.00,028.8,027.3,000.0,037.3,030.4,18.1,0000.0,0005.92,0016.04,0004.24
2023-10-25 07:52:00,SystemResetWarning,0827.7,5.00,000.00,028.8,027.2,000.0,037.3,030.4,18.1,0000.0,0005.97,0015.77,0004.24
2023-10-25 07:53:00,SystemResetWarning,0827.7,5.00,000.00,028.8,027.2,000.0,037.3,030.4,18.1,0000.0,0005.95,0016.61,0004.24
2023-10-25 07:54:00,SystemResetWarning,0827.7,5.00,000.00,028.8,027.2,000.0,037.3,030.4,18.2,0000.0,0005.96,0015.85,0004.24
2023-10-25 07:55:00,SystemResetWarning,0827.7,5.00,000.00,028.8,027.2,000.0,037.3,030.4,18.2,0000.0,0006.00,0015.57,0004.25
2023-10-25 07:56:00,SystemResetWarning,0827.7,5.00,000.00,028.8,027.2,000.0,037.3,030.4,18.2,0000.0,0006.03,0015.73,0004.25
2023-10-25 07:57:00,SystemResetWarning,0827.7,5.00,000.00,028.8,027.2,000.0,037.3,030.4,18.3,0000.0,0006.08,0016.42,0004.25
2023-10-25 07:58:00,SystemResetWarning,0827.7,5.00,000.00,028.8,027.2,000.0,037.3,030.4,18.4,0000.0,0006.09,0016.21,0004.25
2023-10-25 07:59:00,SystemResetWarning,0827.7,5.00,000.00,028.8,027.2,000.0,037.3,030.4,18.4,0000.0,0006.07,0015.82,0004.25
